Regional Weather Roundup
Issued by NWS Glasgow, MT

Home | Current Version | Previous Version | Text Only | Print | Product List | Glossary On
Versions: 1 2 3 4 5 6 7 8 9 10 11 12 13 14 15 16 17 18 19 20 21 22 23 24 25 26 27 28 29 30 31 32 33 34 35 36 37 38 39 40 41 42 43 44 45 46 47
000
ASUS45 KGGW 212115
RWRGGW
HOURLY WEATHER ROUNDUP FOR NORTHEAST MONTANA
NATIONAL WEATHER SERVICE GLASGOW MONTANA
300 PM MDT TUE OCT 21 2014

NOTE: "FAIR" INDICATES FEW OR NO CLOUDS BELOW 12,000 FEET WITH NO
SIGNIFICANT WEATHER AND/OR OBSTRUCTIONS TO VISISBILITY.

NORTHEAST MONTANA


CITY           SKY/WX    TMP DP  RH WIND       PRES   REMARKS
GLASGOW        SUNNY     75  46  35 SE8       29.55F
PLENTYWOOD       N/A     75  39  27 S7          N/A
WOLF POINT     SUNNY     75  48  38 E7        29.55F
JORDAN           N/A     79  37  22 W16       29.58S
WINNETT          N/A     66  41  40 N9          N/A
SIDNEY         SUNNY     72  46  40 CALM      29.60F
GLENDIVE       SUNNY     72  41  33 S7        29.61F
MALTA            N/A     63  42  46 W12         N/A
SCOBEY           N/A     74  42  31 S5        29.60S

FORT PECK REPORTS


CITY           SKY/WX    TMP DP  RH WIND       PRES   REMARKS
FORT PECK        N/A     76  46  34 SW2         N/A
THE PINES        N/A     81  39  22 SW3         N/A

SOUTHEAST MONTANA


CITY           SKY/WX    TMP DP  RH WIND       PRES   REMARKS
BILLINGS       CLOUDY    70  34  26 SW12      29.66F
MILES CITY     SUNNY     76  41  28 S3        29.60F
BAKER          SUNNY     81  38  21 SW10      29.63F
LIVINGSTON     MOSUNNY   63  29  27 SW29G46   29.75R

CENTRAL MONTANA


CITY           SKY/WX    TMP DP  RH WIND       PRES   REMARKS
HAVRE          CLOUDY    59  46  62 W8        29.64F
LEWISTOWN      CLOUDY    64  44  48 W10G18    29.66R
GREAT FALLS    LGT RAIN  47  45  93 W13       29.77S
CUT BANK       LGT RAIN  49  49 100 W6        29.74S
HELENA         LGT RAIN  45  39  79 W9        29.83R
BUTTE          LGT RAIN  40  36  86 NW7       29.89R
BOZEMAN        MOSUNNY   62  30  29 W29G37    29.75R

WESTERN MONTANA


CITY           SKY/WX    TMP DP  RH WIND       PRES   REMARKS
MISSOULA       LGT RAIN  47  44  90 E3        29.93R
KALISPELL      NOT AVBL

NORTH DAKOTA


CITY           SKY/WX    TMP DP  RH WIND       PRES   REMARKS
WILLISTON      SUNNY     75  42  30 SE10      29.59F
DICKINSON      SUNNY     78  45  30 S20       29.62F
MINOT          SUNNY     72  42  34 SE16      29.65F
BISMARCK       MOSUNNY   81  46  29 S14G26    29.68S

SOUTHERN SASKATCHEWAN


CITY           SKY/WX    TMP DP  RH WIND       PRES   REMARKS
REGINA         MOSUNNY   72  46  40 SE15      29.56F
MOOSE JAW      PTSUNNY   77  45  31 SE8       29.54F
ESTEVAN        MOSUNNY   70  43  37 E16       29.60F
SWIFT CURRENT  SUNNY     66  36  32 W14G20    29.55R




USA.gov is the U.S. government's official web portal to all federal, state and local government web resources and services.